Weather History for Columbia Airport, CA

Change the Weather History Date:

Tuesday, October 22, 2013

  Actual Average (KMOD) Record (KMOD)
Temperature  
Mean Temperature 64 °F -  
Max Temperature 84 °F 77 °F 90 °F (1939)
Min Temperature 44 °F 51 °F 35 °F (1949)
Degree Days  
Heating Degree Days 1 3  
Month to date heating degree days 26  
Since 1 July heating degree days 29  
Cooling Degree Days 0 1  
Month to date cooling degree days 77  
Year to date cooling degree days 1689  
Growing Degree Days 14 (Base 50)    
Moisture  
Dew Point 26 °F    
Average Humidity 31    
Maximum Humidity 50    
Minimum Humidity 9    
Precipitation  
Precipitation 0.00 in 0.02 in 0.58 in (1973)
Month to date precipitation 0.40  
Year to date precipitation 9.43  
Since 1 July precipitation 0.68  
Snow  
Snow 0.00 in - 0.00 in (2002)
Month to date snowfall  
Since 1 July snowfall  
Since 1 September snowfall  
Snow Depth -    
Sea Level Pressure  
Sea Level Pressure 30.01 in    
Wind  
Wind Speed 1 mph (SW)    
Max Wind Speed 7 mph    
Max Gust Speed -    
Visibility 10 miles    
Events      
T = Trace of Precipitation, MM = Missing Value Source: NWS Daily Summary

Daily Weather History Graph

Daily Weather History Graph

Search for Another Location

Airport:

Trip Planner

Search our weather history database for the weather conditions in past years. The results will help you decide how hot, cold, wet, or windy it might be!

Date:

Astronomy

Oct. 22, 2013 Rise Set
Actual Time 7:17 AM PDT 6:14 PM PDT
Civil Twilight 6:50 AM PDT 6:40 PM PDT
Nautical Twilight 6:19 AM PDT 7:11 PM PDT
Astronomical Twilight 5:49 AM PDT 7:42 PM PDT
Moon 9:01 PM PDT (10/22) 10:47 AM PDT (10/22)
Length of Visible Light 11h 50m
Length of Day
10h 56m
Waning Gibbous, 86% of the Moon is Illuminated
Oct 22
Waning Gibbous
Oct 26
Last Quarter
Nov 3
New
Nov 9
First Quarter
Nov 17
Full

Hourly Weather History & Observations

Time (PDT) Temp. Dew Point Humidity Pressure Visibility Wind Dir Wind Speed Gust Speed Precip Events Conditions
12:15 AM 48.2 °F 30.2 °F 50% 30.03 in 10.0 mi Calm Calm - N/A   Clear
12:35 AM 48.2 °F 30.2 °F 50% 30.03 in 10.0 mi Calm Calm - N/A   Clear
12:55 AM 48.2 °F 28.4 °F 46% 30.03 in 10.0 mi Calm Calm - N/A   Clear
1:15 AM 46.4 °F 28.4 °F 50% 30.03 in 10.0 mi Calm Calm - N/A   Clear
1:35 AM 48.2 °F 28.4 °F 46% 30.03 in 10.0 mi Calm Calm - N/A   Clear
1:55 AM 46.4 °F 28.4 °F 50% 30.03 in 10.0 mi Calm Calm - N/A   Clear
2:15 AM 46.4 °F 26.6 °F 46% 30.03 in 10.0 mi Calm Calm - N/A   Clear
2:35 AM 46.4 °F 26.6 °F 46% 30.03 in 10.0 mi Calm Calm - N/A   Clear
2:55 AM 46.4 °F 26.6 °F 46% 30.03 in 10.0 mi Calm Calm - N/A   Clear
3:15 AM 44.6 °F 26.6 °F 49% 30.03 in 10.0 mi Calm Calm - N/A   Clear
3:35 AM 44.6 °F 26.6 °F 49% 30.03 in 10.0 mi Calm Calm - N/A   Clear
3:55 AM 44.6 °F 24.8 °F 46% 30.02 in 10.0 mi Calm Calm - N/A   Clear
4:15 AM 44.6 °F 24.8 °F 46% 30.02 in 10.0 mi Calm Calm - N/A   Clear
4:35 AM 46.4 °F 24.8 °F 43% 30.02 in 10.0 mi Calm Calm - N/A   Clear
4:55 AM 46.4 °F 24.8 °F 43% 30.02 in 10.0 mi Calm Calm - N/A   Clear
5:15 AM 46.4 °F 24.8 °F 43% 30.02 in 10.0 mi Calm Calm - N/A   Clear
5:35 AM 46.4 °F 23.0 °F 40% 30.02 in 10.0 mi Calm Calm - N/A   Clear
5:55 AM 46.4 °F 24.8 °F 43% 30.03 in 10.0 mi Calm Calm - N/A   Clear
6:15 AM 46.4 °F 23.0 °F 40% 30.03 in 10.0 mi Calm Calm - N/A   Clear
6:35 AM 46.4 °F 24.8 °F 43% 30.03 in 10.0 mi Calm Calm - N/A   Clear
6:55 AM 44.6 °F 24.8 °F 46% 30.03 in 10.0 mi Calm Calm - N/A   Clear
7:15 AM 46.4 °F 24.8 °F 43% 30.03 in 10.0 mi Calm Calm - N/A   Clear
7:35 AM 46.4 °F 23.0 °F 40% 30.03 in 10.0 mi Calm Calm - N/A   Clear
7:55 AM 46.4 °F 23.0 °F 40% 30.04 in 10.0 mi Calm Calm - N/A   Clear
8:15 AM 50.0 °F 24.8 °F 37% 30.04 in 10.0 mi Calm Calm - N/A   Clear
8:35 AM 55.4 °F 28.4 °F 36% 30.04 in 10.0 mi Calm Calm - N/A   Clear
8:55 AM 57.2 °F 30.2 °F 36% 30.05 in 10.0 mi Calm Calm - N/A   Clear
9:15 AM 62.6 °F 30.2 °F 30% 30.05 in 10.0 mi Calm Calm - N/A   Clear
9:35 AM 68.0 °F 28.4 °F 23% 30.05 in 10.0 mi Calm Calm - N/A   Clear
9:55 AM 73.4 °F 21.2 °F 14% 30.05 in 10.0 mi Calm Calm - N/A   Clear
10:15 AM 75.2 °F 23.0 °F 14% 30.05 in 10.0 mi Calm Calm - N/A   Clear
10:35 AM 77.0 °F 24.8 °F 14% 30.04 in 10.0 mi South 3.5 mph - N/A   Clear
10:55 AM 77.0 °F 21.2 °F 12% 30.04 in 10.0 mi Calm Calm - N/A   Clear
11:15 AM 80.6 °F 19.4 °F 10% 30.04 in 10.0 mi Calm Calm - N/A   Clear
11:35 AM 80.6 °F 17.6 °F 10% 30.04 in 10.0 mi South 4.6 mph - N/A   Clear
11:55 AM 80.6 °F 21.2 °F 11% 30.03 in 10.0 mi South 3.5 mph - N/A   Clear
12:15 PM 82.4 °F 23.0 °F 11% 30.03 in 10.0 mi SSW 3.5 mph - N/A   Clear
12:35 PM 80.6 °F 21.2 °F 11% 30.03 in 9.0 mi SSW 3.5 mph - N/A   Clear
12:55 PM 82.4 °F 21.2 °F 10% 30.02 in 10.0 mi SW 5.8 mph - N/A   Clear
1:15 PM 82.4 °F 19.4 °F 10% 30.01 in 10.0 mi West 6.9 mph - N/A   Clear
1:35 PM 82.4 °F 19.4 °F 10% 30.01 in 10.0 mi SW 4.6 mph - N/A   Clear
1:55 PM 82.4 °F 17.6 °F 9% 30.00 in 10.0 mi West 6.9 mph - N/A   Clear
2:15 PM 84.2 °F 19.4 °F 9% 29.99 in 10.0 mi SW 4.6 mph - N/A   Clear
2:35 PM 84.2 °F 19.4 °F 9% 29.99 in 10.0 mi West 5.8 mph - N/A   Clear
2:55 PM 82.4 °F 19.4 °F 10% 29.99 in 10.0 mi WSW 4.6 mph - N/A   Clear
3:15 PM 82.4 °F 19.4 °F 10% 29.99 in 10.0 mi WSW 5.8 mph - N/A   Clear
3:35 PM 82.4 °F 23.0 °F 11% 29.99 in 10.0 mi WSW 5.8 mph - N/A   Clear
3:55 PM 82.4 °F 24.8 °F 12% 29.98 in 10.0 mi WSW 5.8 mph - N/A   Clear
4:15 PM 82.4 °F 24.8 °F 12% 29.98 in 10.0 mi SW 5.8 mph - N/A   Clear
4:35 PM 82.4 °F 26.6 °F 13% 29.98 in 10.0 mi South 4.6 mph - N/A   Clear
4:55 PM 80.6 °F 26.6 °F 14% 29.97 in 10.0 mi SW 3.5 mph - N/A   Clear
5:15 PM 80.6 °F 24.8 °F 13% 29.97 in 10.0 mi WSW 4.6 mph - N/A   Clear
5:35 PM 77.0 °F 26.6 °F 16% 29.97 in 10.0 mi West 3.5 mph - N/A   Clear
5:55 PM 75.2 °F 28.4 °F 18% 29.97 in 10.0 mi Calm Calm - N/A   Clear
6:15 PM 68.0 °F 30.2 °F 24% 29.97 in 10.0 mi Calm Calm - N/A   Clear
6:35 PM 64.4 °F 30.2 °F 28% 29.98 in 10.0 mi Calm Calm - N/A   Clear
6:55 PM 60.8 °F 30.2 °F 31% 29.98 in 10.0 mi Calm Calm - N/A   Clear
7:35 PM 57.2 °F 30.2 °F 36% 29.98 in 10.0 mi Calm Calm - N/A   Clear
7:55 PM 57.2 °F 28.4 °F 33% 29.98 in 10.0 mi Calm Calm - N/A   Clear
8:15 PM 55.4 °F 28.4 °F 36% 29.98 in 10.0 mi Calm Calm - N/A   Clear
8:35 PM 53.6 °F 30.2 °F 41% 29.98 in 10.0 mi Calm Calm - N/A   Clear
8:55 PM 53.6 °F 28.4 °F 38% 29.98 in 10.0 mi Calm Calm - N/A   Clear
9:15 PM 53.6 °F 30.2 °F 41% 29.98 in 10.0 mi Calm Calm - N/A   Clear
9:35 PM 50.0 °F 28.4 °F 43% 29.98 in 10.0 mi Calm Calm - N/A   Clear
9:55 PM 51.8 °F 30.2 °F 44% 29.98 in 10.0 mi Calm Calm - N/A   Clear
10:15 PM 50.0 °F 30.2 °F 47% 29.99 in 10.0 mi Calm Calm - N/A   Clear
10:35 PM 50.0 °F 30.2 °F 47% 29.99 in 10.0 mi Calm Calm - N/A   Clear
10:55 PM 48.2 °F 28.4 °F 46% 29.99 in 10.0 mi Calm Calm - N/A   Clear
11:15 PM 48.2 °F 28.4 °F 46% 29.99 in 10.0 mi Calm Calm - N/A   Clear
11:35 PM 48.2 °F 28.4 °F 46% 29.99 in 10.0 mi Calm Calm - N/A   Clear
11:55 PM 48.2 °F 28.4 °F 46% 29.98 in 10.0 mi Calm Calm - N/A   Clear